Athens Eleftherios, Greece

4:35 PM EET on December 12, 2017 (GMT +0200)
Eleftherios Venizelos International

Weather History for LGAV - March, 2014

Change the Weather History Date:

Monday, March 17, 2014

  Actual Average (LGAT) Record (LGAT)
Temperature  
Mean Temperature 55 °F -  
Max Temperature 69 °F 58 °F 66 °F (2001)
Min Temperature 41 °F 45 °F 37 °F (1998)
Degree Days  
Heating Degree Days 10    
Growing Degree Days 5 (Base 50)    
Moisture  
Dew Point 43 °F    
Average Humidity 67    
Maximum Humidity 93    
Minimum Humidity 35    
Precipitation  
Precipitation 0.00 in - - ()
Sea Level Pressure  
Sea Level Pressure 29.98 in    
Wind  
Wind Speed 4 mph ()    
Max Wind Speed 15 mph    
Max Gust Speed -    
Visibility 6.2 miles    
Events      
Averages and records for this station are not official NWS values.
T = Trace of Precipitation, MM = Missing Value Source: Averaged Metar Reports

Daily Weather History Graph

Daily Weather History Graph

Search for Another Location

Airport or City:

Trip Planner

Search our weather history database for the weather conditions in past years. The results will help you decide how hot, cold, wet, or windy it might be!

Date:

Astronomy

Mar. 17, 2014 Rise Set
Actual Time 6:32 AM EET 6:33 PM EET
Civil Twilight 6:06 AM EET 6:59 PM EET
Nautical Twilight 5:36 AM EET 7:29 PM EET
Astronomical Twilight 5:05 AM EET 8:00 PM EET
Moon 7:29 PM EET (3/17) 6:39 AM EET (3/17)
Length of Visible Light 12h 52m
Length of Day
12h 00m
Full, 100% of the Moon is Illuminated
Mar 17
Full
Mar 24
Last Quarter
Mar 30
New
Apr 7
First Quarter
Apr 15
Full

Hourly Weather History & Observations

Time (EET) Temp. Windchill Dew Point Humidity Pressure Visibility Wind Dir Wind Speed Gust Speed Precip Events Conditions
12:20 AM 46.4 °F 45.2 °F 44.6 °F 93% 29.89 in 6.2 mi South 3.5 mph - N/A   Partly Cloudy
12:50 AM 46.4 °F - 44.6 °F 93% 29.89 in 6.2 mi Variable 1.2 mph - N/A   Partly Cloudy
1:20 AM 46.4 °F 44.3 °F 44.6 °F 93% 29.89 in 6.2 mi WNW 4.6 mph - N/A   Partly Cloudy
1:50 AM 46.4 °F 45.2 °F 44.6 °F 93% 29.89 in 6.2 mi WNW 3.5 mph - N/A   Partly Cloudy
2:20 AM 46.4 °F - 42.8 °F 87% 29.89 in 6.2 mi West 2.3 mph - N/A   Partly Cloudy
2:50 AM 44.6 °F 43.1 °F 41.0 °F 87% 29.89 in 6.2 mi West 3.5 mph - N/A   Partly Cloudy
3:20 AM 42.8 °F 40.1 °F 41.0 °F 93% 29.89 in 6.2 mi West 4.6 mph - N/A   Partly Cloudy
3:50 AM 42.8 °F 41.1 °F 41.0 °F 93% 29.89 in 6.2 mi West 3.5 mph - N/A   Partly Cloudy
4:20 AM 41.0 °F 38.0 °F 39.2 °F 93% 29.89 in 6.2 mi WNW 4.6 mph - N/A   Partly Cloudy
4:50 AM 41.0 °F - 39.2 °F 93% 29.89 in 6.2 mi Calm Calm - N/A   Partly Cloudy
5:20 AM 42.8 °F - 39.2 °F 87% 29.89 in 6.2 mi Variable 2.3 mph - N/A   Partly Cloudy
5:50 AM 42.8 °F - 41.0 °F 93% 29.89 in 6.2 mi North 1.2 mph - N/A   Partly Cloudy
6:20 AM 42.8 °F - 41.0 °F 93% 29.92 in 6.2 mi North 2.3 mph - N/A   Partly Cloudy
6:50 AM 41.0 °F 39.0 °F 39.2 °F 93% 29.92 in 6.2 mi WNW 3.5 mph - N/A   Partly Cloudy
7:20 AM 46.4 °F - 41.0 °F 81% 29.92 in 6.2 mi WNW 1.2 mph - N/A   Partly Cloudy
7:50 AM 48.2 °F - 44.6 °F 87% 29.95 in 6.2 mi Calm Calm - N/A   Partly Cloudy
8:20 AM 51.8 °F - 46.4 °F 82% 29.95 in 6.2 mi Calm Calm - N/A   Partly Cloudy
8:50 AM 57.2 °F - 50.0 °F 77% 29.98 in 6.2 mi Calm Calm - N/A   Partly Cloudy
9:20 AM 59.0 °F - 46.4 °F 63% 29.98 in 6.2 mi Variable 1.2 mph - N/A   Partly Cloudy
9:50 AM 59.0 °F - 46.4 °F 63% 29.98 in 6.2 mi Calm Calm - N/A   Partly Cloudy
10:20 AM 60.8 °F - 46.4 °F 59% 29.98 in 6.2 mi Variable 2.3 mph - N/A   Partly Cloudy
10:50 AM 62.6 °F - 46.4 °F 55% 29.98 in 6.2 mi Variable 3.5 mph - N/A   Partly Cloudy
11:20 AM 64.4 °F - 48.2 °F 56% 30.01 in 6.2 mi ENE 4.6 mph - N/A   Partly Cloudy
11:50 AM 64.4 °F - 46.4 °F 52% 30.01 in 6.2 mi East 4.6 mph - N/A   Partly Cloudy
12:20 PM 66.2 °F - 42.8 °F 43% 30.01 in 6.2 mi North 10.4 mph - N/A   Partly Cloudy
12:50 PM 68.0 °F - 41.0 °F 37% 30.01 in 6.2 mi NNE 5.8 mph - N/A   Partly Cloudy
1:20 PM 69.8 °F - 42.8 °F 38% 29.98 in 6.2 mi North 10.4 mph - N/A   Scattered Clouds
1:50 PM 68.0 °F - 41.0 °F 37% 29.98 in 6.2 mi NE 9.2 mph - N/A   Scattered Clouds
2:20 PM 68.0 °F - 39.2 °F 35% 29.98 in 6.2 mi North 10.4 mph - N/A   Scattered Clouds
2:50 PM 68.0 °F - 41.0 °F 37% 29.98 in 6.2 mi NE 15.0 mph - N/A   Scattered Clouds
3:20 PM 68.0 °F - 42.8 °F 40% 29.98 in 6.2 mi East 10.4 mph - N/A   Scattered Clouds
3:50 PM 68.0 °F - 42.8 °F 40% 30.01 in 6.2 mi ENE 13.8 mph - N/A   Scattered Clouds
4:20 PM 66.2 °F - 42.8 °F 43% 30.01 in 6.2 mi East 8.1 mph - N/A   Scattered Clouds
4:50 PM 66.2 °F - 41.0 °F 40% 30.01 in 6.2 mi East 8.1 mph - N/A   Scattered Clouds
5:20 PM 64.4 °F - 42.8 °F 45% 30.01 in 6.2 mi East 6.9 mph - N/A   Scattered Clouds
5:50 PM 64.4 °F - 44.6 °F 49% 30.01 in 6.2 mi ESE 3.5 mph - N/A   Scattered Clouds
6:20 PM 62.6 °F - 44.6 °F 52% 30.04 in 6.2 mi SE 3.5 mph - N/A   Scattered Clouds
6:50 PM 60.8 °F - 44.6 °F 55% 30.04 in 6.2 mi SE 3.5 mph - N/A   Mostly Cloudy
7:20 PM 59.0 °F - 44.6 °F 59% 30.04 in 6.2 mi ESE 3.5 mph - N/A   Mostly Cloudy
7:50 PM 59.0 °F - 42.8 °F 55% 30.06 in 6.2 mi NE 4.6 mph - N/A   Mostly Cloudy
8:20 PM 57.2 °F - 42.8 °F 59% 30.06 in 6.2 mi Calm Calm - N/A   Mostly Cloudy
8:50 PM 57.2 °F - 42.8 °F 59% 30.06 in 6.2 mi WSW 3.5 mph - N/A   Mostly Cloudy
9:20 PM 55.4 °F - 42.8 °F 63% 30.06 in - West 2.3 mph - N/A   Clear
9:50 PM 55.4 °F - 42.8 °F 63% 30.06 in - Variable 1.2 mph - N/A   Clear
10:20 PM 53.6 °F - 42.8 °F 67% 30.06 in - WNW 3.5 mph - N/A   Clear
10:50 PM 50.0 °F - 42.8 °F 76% 30.09 in - Variable 2.3 mph - N/A   Clear
11:20 PM 50.0 °F - 42.8 °F 76% 30.06 in - WNW 4.6 mph - N/A   Clear
11:50 PM 50.0 °F - 42.8 °F 76% 30.09 in - WNW 3.5 mph - N/A   Clear